When you browse on this site, cookies collect data to enhance your experience and personalize the content and advertising you see.
Visit our Privacy Policy to learn more. By continuing to use the site, you agree to this use of cookies and data.
  • In Austria
  • List of Countries
  • For 7 days
  • Water Temperature
  • Weather Map
  • News
  • Weather Widgets
  • user-avatar
    Login

    Hourly Weather Quebec

    Today, 27 January, Monday

    Time Temperature Precipitation Wind Pressure Humidity
    00:00 -9°C° 0 mm 4 mps 686 mmHg 93%
    01:00 -10°C° 0 mm 4 mps 686 mmHg 92%
    02:00 -12°C° 0 mm 5 mps 686 mmHg 92%
    03:00 -14°C° 0 mm 5 mps 686 mmHg 93%
    04:00 -15°C° 0 mm 5 mps 686 mmHg 93%
    05:00 -17°C° 0 mm 5 mps 686 mmHg 93%
    06:00 -19°C° 0 mm 5 mps 686 mmHg 93%
    07:00 -20°C° 0 mm 5 mps 687 mmHg 92%
    08:00 -21°C° 0 mm 6 mps 687 mmHg 90%
    09:00 -21°C° 0 mm 6 mps 687 mmHg 88%
    10:00 -21°C° 0 mm 6 mps 688 mmHg 85%
    11:00 -20°C° 0 mm 6 mps 688 mmHg 82%
    12:00 -18°C° 0 mm 5 mps 688 mmHg 79%
    13:00 -18°C° 0 mm 5 mps 688 mmHg 75%
    14:00 -19°C° 0 mm 5 mps 688 mmHg 76%
    15:00 -20°C° 0 mm 5 mps 688 mmHg 77%
    16:00 -20°C° 0 mm 4 mps 688 mmHg 78%
    17:00 -22°C° 0 mm 4 mps 689 mmHg 78%
    18:00 -23°C° 0 mm 4 mps 689 mmHg 78%
    19:00 -24°C° 0 mm 4 mps 689 mmHg 78%
    20:00 -25°C° 0 mm 4 mps 690 mmHg 75%
    21:00 -24°C° 0 mm 3 mps 690 mmHg 73%
    22:00 -24°C° 0 mm 3 mps 690 mmHg 71%
    23:00 -24°C° 0 mm 3 mps 690 mmHg 68%

    Tomorrow, 28 January, Tuesday

    Time Temperature Precipitation Wind Pressure Humidity
    00:00 -23°C° 0 mm 2 mps 690 mmHg 66%
    01:00 -23°C° 0 mm 2 mps 690 mmHg 64%
    02:00 -23°C° 0 mm 2 mps 690 mmHg 62%
    03:00 -23°C° 0 mm 2 mps 690 mmHg 60%
    04:00 -23°C° 0 mm 2 mps 690 mmHg 59%
    05:00 -20°C° 0 mm 1 mps 690 mmHg 57%
    06:00 -20°C° 0 mm 1 mps 690 mmHg 56%
    07:00 -20°C° 0 mm 1 mps 691 mmHg 55%
    08:00 -18°C° 0 mm 1 mps 691 mmHg 58%
    09:00 -16°C° 0 mm 1 mps 691 mmHg 62%
    10:00 -14°C° 0 mm 1 mps 692 mmHg 66%
    11:00 -13°C° 0 mm 1 mps 691 mmHg 68%
    12:00 -15°C° 0 mm 2 mps 691 mmHg 69%
    13:00 -14°C° 0 mm 2 mps 691 mmHg 71%
    14:00 -16°C° 0 mm 3 mps 691 mmHg 75%
    15:00 -18°C° 0 mm 3 mps 691 mmHg 80%
    16:00 -19°C° 0 mm 3 mps 690 mmHg 84%
    17:00 -22°C° 0 mm 3 mps 691 mmHg 88%
    18:00 -24°C° 0 mm 3 mps 691 mmHg 91%
    19:00 -26°C° 0 mm 4 mps 691 mmHg 95%
    20:00 -27°C° 0 mm 3 mps 692 mmHg 96%
    21:00 -29°C° 0 mm 3 mps 692 mmHg 97%
    22:00 -30°C° 0 mm 3 mps 692 mmHg 98%
    23:00 -31°C° 0 mm 3 mps 693 mmHg 98%

    Day after tomorrow, 29 January, Wednesday

    Time Temperature Precipitation Wind Pressure Humidity
    00:00 -32°C° 0 mm 3 mps 693 mmHg 97%
    01:00 -31°C° 0 mm 2 mps 693 mmHg 96%
    02:00 -32°C° 0 mm 2 mps 694 mmHg 96%
    03:00 -32°C° 0 mm 2 mps 694 mmHg 95%
    04:00 -32°C° 0 mm 2 mps 695 mmHg 94%
    05:00 -32°C° 0 mm 2 mps 695 mmHg 94%
    06:00 -32°C° 0 mm 2 mps 695 mmHg 94%
    07:00 -34°C° 0 mm 2 mps 696 mmHg 94%
    08:00 -31°C° 0 mm 2 mps 697 mmHg 92%
    09:00 -29°C° 0 mm 2 mps 697 mmHg 90%
    10:00 -27°C° 0 mm 2 mps 698 mmHg 88%
    11:00 -26°C° 0 mm 2 mps 698 mmHg 87%
    12:00 -24°C° 0 mm 2 mps 698 mmHg 85%
    13:00 -23°C° 0 mm 2 mps 698 mmHg 83%
    14:00 -23°C° 0 mm 2 mps 698 mmHg 85%
    15:00 -24°C° 0 mm 2 mps 698 mmHg 87%
    16:00 -22°C° 0 mm 1 mps 698 mmHg 89%
    17:00 -22°C° 0 mm 1 mps 698 mmHg 87%
    18:00 -23°C° 0 mm 1 mps 698 mmHg 86%
    19:00 -24°C° 0 mm 1 mps 699 mmHg 84%
    20:00 -24°C° 0 mm 1 mps 699 mmHg 82%
    21:00 -23°C° 0 mm 1 mps 699 mmHg 80%
    22:00 -23°C° 0 mm 1 mps 699 mmHg 78%
    23:00 -23°C° 0 mm 1 mps 699 mmHg 76%

    30 January, Thursday

    Time Temperature Precipitation Wind Pressure Humidity
    00:00 -23°C° 0 mm 1 mps 698 mmHg 74%
    01:00 -23°C° 0 mm 1 mps 698 mmHg 72%
    02:00 -23°C° 0 mm 1 mps 698 mmHg 72%
    03:00 -23°C° 0 mm 1 mps 698 mmHg 72%
    04:00 -26°C° 0 mm 2 mps 698 mmHg 72%
    05:00 -26°C° 0 mm 2 mps 698 mmHg 73%
    06:00 -26°C° 0 mm 2 mps 698 mmHg 74%
    07:00 -26°C° 0 mm 2 mps 698 mmHg 76%
    08:00 -25°C° 0 mm 2 mps 698 mmHg 77%
    09:00 -24°C° 0 mm 3 mps 698 mmHg 78%
    10:00 -23°C° 0 mm 3 mps 698 mmHg 80%
    11:00 -21°C° 0 mm 3 mps 698 mmHg 80%
    12:00 -20°C° 0 mm 4 mps 697 mmHg 81%
    13:00 -19°C° 0 mm 4 mps 696 mmHg 81%
    14:00 -19°C° 0 mm 4 mps 696 mmHg 84%
    15:00 -20°C° 0 mm 4 mps 696 mmHg 86%
    16:00 -20°C° 0 mm 4 mps 695 mmHg 88%
    17:00 -22°C° 0 mm 4 mps 695 mmHg 90%
    18:00 -23°C° 0 mm 4 mps 695 mmHg 92%
    19:00 -24°C° 0 mm 5 mps 695 mmHg 93%
    20:00 -24°C° 0.1 mm 5 mps 695 mmHg 94%
    21:00 -22°C° 0.1 mm 5 mps 695 mmHg 94%
    22:00 -22°C° 0.1 mm 5 mps 695 mmHg 94%
    23:00 -24°C° 0.1 mm 5 mps 695 mmHg 94%

    31 January, Friday

    Time Temperature Precipitation Wind Pressure Humidity
    00:00 -24°C° 0.1 mm 5 mps 695 mmHg 95%
    01:00 -24°C° 0.1 mm 4 mps 695 mmHg 95%
    02:00 -25°C° 0 mm 4 mps 695 mmHg 96%
    03:00 -25°C° 0 mm 4 mps 695 mmHg 97%
    04:00 -25°C° 0 mm 3 mps 695 mmHg 98%
    05:00 -26°C° 0 mm 3 mps 695 mmHg 98%
    06:00 -26°C° 0 mm 3 mps 696 mmHg 99%
    07:00 -27°C° 0 mm 3 mps 696 mmHg 99%
    08:00 -25°C° 0 mm 2 mps 696 mmHg 98%
    09:00 -23°C° 0 mm 2 mps 697 mmHg 96%
    10:00 -19°C° 0 mm 1 mps 698 mmHg 95%
    11:00 -19°C° 0 mm 2 mps 698 mmHg 92%
    12:00 -18°C° 0 mm 2 mps 698 mmHg 90%
    13:00 -16°C° 0 mm 2 mps 698 mmHg 87%
    14:00 -16°C° 0 mm 2 mps 698 mmHg 89%
    15:00 -17°C° 0 mm 2 mps 698 mmHg 92%
    16:00 -18°C° 0 mm 2 mps 698 mmHg 94%
    17:00 -18°C° 0 mm 2 mps 698 mmHg 94%
    18:00 -19°C° 0 mm 2 mps 698 mmHg 95%
    19:00 -20°C° 0 mm 2 mps 697 mmHg 95%
    20:00 -20°C° 0 mm 2 mps 697 mmHg 95%
    21:00 -20°C° 0 mm 2 mps 697 mmHg 96%
    22:00 -20°C° 0 mm 2 mps 697 mmHg 97%
    23:00 -19°C° 0 mm 2 mps 697 mmHg 97%

    1 February, Saturday

    Time Temperature Precipitation Wind Pressure Humidity
    00:00 -19°C° 0 mm 2 mps 697 mmHg 97%
    01:00 -19°C° 0 mm 2 mps 697 mmHg 97%
    02:00 -19°C° 0 mm 2 mps 697 mmHg 97%
    03:00 -19°C° 0 mm 2 mps 697 mmHg 97%
    04:00 -19°C° 0 mm 2 mps 697 mmHg 97%
    05:00 -20°C° 0 mm 2 mps 696 mmHg 97%
    06:00 -20°C° 0 mm 2 mps 696 mmHg 97%
    07:00 -21°C° 0 mm 2 mps 696 mmHg 98%
    08:00 -20°C° 0 mm 2 mps 696 mmHg 97%
    09:00 -18°C° 0 mm 2 mps 696 mmHg 96%
    10:00 -18°C° 0 mm 3 mps 696 mmHg 95%
    11:00 -17°C° 0 mm 3 mps 696 mmHg 94%
    12:00 -16°C° 0 mm 3 mps 695 mmHg 93%
    13:00 -15°C° 0 mm 3 mps 695 mmHg 91%
    14:00 -15°C° 0 mm 3 mps 694 mmHg 92%
    15:00 -15°C° 0 mm 3 mps 694 mmHg 93%
    16:00 -15°C° 0 mm 3 mps 693 mmHg 93%
    17:00 -15°C° 0 mm 3 mps 693 mmHg 94%
    18:00 -15°C° 0 mm 3 mps 693 mmHg 94%
    19:00 -16°C° 0 mm 3 mps 692 mmHg 95%
    20:00 -16°C° 0 mm 3 mps 692 mmHg 95%
    21:00 -16°C° 0 mm 3 mps 691 mmHg 94%
    22:00 -16°C° 0 mm 3 mps 691 mmHg 94%
    23:00 -16°C° 0 mm 3 mps 690 mmHg 92%
    Show more